M I D A S
Marine Information and Data Acquisition System
Tripno 1188 of the Zeeleeuw from 2006-11-23 08:00:51 to 2006-11-23 12:56:23
Back to CruiseResearch ActivitiesStationsMapUnderway DataData graphs

EquipmentUnitsComment
TimeDGPSUTC
LatitudeDGPSDM.mWGS84
LongitudeDGPSDM.mWGS84
TemperatureSBE03/SBE38deg celciusITS90
ConductivitySBE21S/mITS90
SalinitySBE21 Practical Salinity Units
ChlorophylAChelsea fluorimeterg/lCalibrated in Aceton
Missing or incorrect values are displayed as -999
Sea surface data collected by the RV Zeeleeuw from 2006-11-23 08:01:19 to 2006-11-23 13:12:53
Time Latitude Longitude Temperature Conductivity Salinity ChlorophylA
2006-11-23 08:02:25 51°13.615 2°56.024 -999 0.001902 0.016583 -2.871232
2006-11-23 08:03:25 51°13.645 2°55.905 -999 0.001902 0.016583 -2.871232
2006-11-23 08:04:25 51°13.69 2°55.8 -999 2.928351 23.281704 -2.871232
2006-11-23 08:05:23 51°13.723 2°55.728 -999 2.715454 22.462659 -2.871232
2006-11-23 08:06:24 51°13.734 2°55.744 -999 2.702016 22.449301 -2.871232
2006-11-23 08:07:23 51°13.723 2°55.725 -999 2.654465 22.073129 -2.871232
2006-11-23 08:08:24 51°13.779 2°55.677 -999 2.738408 22.851428 -2.871232
2006-11-23 08:09:24 51°13.881 2°55.597 -999 2.389915 19.710329 -2.871232
2006-11-23 08:10:23 51°13.988 2°55.519 -999 2.618391 21.776718 -2.871232
2006-11-23 08:11:24 51°14.09 2°55.446 -999 2.794965 23.375297 -2.871232
2006-11-23 08:12:24 51°14.201 2°55.35 -999 2.824746 23.659122 -2.871232
2006-11-23 08:13:23 51°14.316 2°55.169 -999 2.766428 23.131479 -2.871232
2006-11-23 08:14:23 51°14.453 2°55.003 -999 2.862594 23.986025 -2.871232
2006-11-23 08:15:24 51°14.63 2°54.855 -999 0.100495 0.666275 -2.871232
2006-11-23 08:16:24 51°14.799 2°54.686 -999 3.719688 31.794352 -2.871232
2006-11-23 08:17:23 51°14.978 2°54.514 -999 3.769528 32.163128 -2.871232
2006-11-23 08:18:24 51°15.162 2°54.327 -999 3.758833 -999 -2.871232
2006-11-23 08:19:23 51°15.351 2°54.163 -999 3.786521 32.183089 -2.871232
2006-11-23 08:20:23 51°15.54 2°53.968 -999 3.824139 32.452125 -2.871232
2006-11-23 08:21:23 51°15.732 2°53.78 -999 3.801651 32.283733 -2.871232
2006-11-23 08:22:24 51°15.928 2°53.584 -999 3.798646 32.334015 -2.871232
2006-11-23 08:23:23 51°16.115 2°53.394 -999 3.811289 32.390155 -2.871232
2006-11-23 08:24:23 51°16.306 2°53.203 -999 3.838959 32.526887 -2.871232
2006-11-23 08:25:24 51°16.501 2°53.012 -999 3.85751 32.614052 -2.871232
2006-11-23 08:26:23 51°16.692 2°52.839 -999 3.87772 32.710043 -2.871232
2006-11-23 08:27:24 51°16.884 2°52.668 -999 3.884559 32.666655 -2.871232
2006-11-23 08:28:24 51°17.082 2°52.53 -999 3.890674 32.677495 -2.871232
2006-11-23 08:29:24 51°17.297 2°52.494 -999 3.890467 32.655568 -2.871232
2006-11-23 08:30:24 51°17.512 2°52.446 -999 3.886528 32.612349 -2.871232
2006-11-23 08:31:24 51°17.728 2°52.43 -999 3.888083 32.645252 -2.871232
2006-11-23 08:32:24 51°17.942 2°52.453 -999 3.892955 32.714856 -2.871232
2006-11-23 08:33:24 51°18.142 2°52.565 -999 3.884145 32.665173 -2.871232
2006-11-23 08:34:23 51°18.294 2°52.796 -999 3.894096 32.786575 -2.871232
2006-11-23 08:35:23 51°18.456 2°53.021 -999 3.887877 32.730641 -2.871232
2006-11-23 08:36:24 51°18.625 2°53.242 -999 3.889017 32.744552 -2.871232
2006-11-23 08:37:23 51°18.786 2°53.45 -999 3.897621 32.834151 -2.871232
2006-11-23 08:38:24 51°18.962 2°53.652 -999 3.898035 32.842076 -2.871232
2006-11-23 08:39:23 51°19.131 2°53.851 -999 3.898243 32.856126 -2.871232
2006-11-23 08:40:23 51°19.306 2°54.05 -999 3.898347 32.864367 -2.871232
2006-11-23 08:41:24 51°19.474 2°54.277 -999 3.89928 32.877172 -2.871232
2006-11-23 08:42:24 51°19.638 2°54.497 -999 3.899176 32.882664 -2.871232
2006-11-23 08:43:23 51°19.798 2°54.718 -999 3.898865 32.887826 -2.871232
2006-11-23 08:44:24 51°19.969 2°54.929 -999 3.897829 32.887787 -2.871232
2006-11-23 08:45:24 51°20.129 2°55.142 -999 3.896067 32.877688 -2.871232
2006-11-23 08:46:24 51°20.293 2°55.361 -999 3.894616 32.87051 -2.871232
2006-11-23 08:47:24 51°20.457 2°55.582 -999 3.893683 32.867398 -2.871232
2006-11-23 08:48:24 51°20.618 2°55.81 -999 3.892439 32.862168 -2.871232
2006-11-23 08:49:24 51°20.776 2°56.036 -999 3.890366 32.850751 -2.871232
2006-11-23 08:50:24 51°20.933 2°56.27 -999 3.888293 32.842566 -2.871232
2006-11-23 08:51:24 51°21.084 2°56.505 -999 3.886427 32.837139 -2.871232
2006-11-23 08:52:24 51°21.226 2°56.758 -999 3.883836 32.83135 -2.871232
2006-11-23 08:53:24 51°21.341 2°57.042 -999 3.880934 32.823438 -2.871232
2006-11-23 08:54:24 51°21.455 2°57.332 -999 3.879587 32.822887 -2.871232
2006-11-23 08:55:24 51°21.561 2°57.627 -999 3.876581 32.809938 -2.871232
2006-11-23 08:56:24 51°21.658 2°57.928 -999 3.873887 32.798294 -2.871232
2006-11-23 08:57:24 51°21.757 2°58.167 -999 3.868497 32.783902 -2.871232
2006-11-23 08:58:24 51°21.798 2°58.246 -999 3.868083 32.779987 -2.871232
2006-11-23 08:59:24 51°21.862 2°58.195 -999 3.863419 32.767561 -2.871232
2006-11-23 09:00:24 51°21.845 2°58.079 -999 3.857201 32.751783 -2.871232
2006-11-23 09:01:24 51°21.819 2°58.001 -999 3.859895 32.761843 -2.871232
2006-11-23 09:02:24 51°21.771 2°57.954 -999 3.861139 32.767109 -2.871232
2006-11-23 09:03:24 51°21.711 2°57.975 -999 3.862072 32.766999 -2.871232
2006-11-23 09:04:24 51°21.728 2°58.08 -999 3.863212 32.768036 -2.871232
2006-11-23 09:05:23 51°21.745 2°58.136 -999 3.86715 32.776044 -2.871232
2006-11-23 09:06:24 51°21.744 2°58.139 -999 3.863626 32.76222 -2.871232
2006-11-23 09:07:23 51°21.74 2°58.142 -999 3.859999 32.75065 -2.871232
2006-11-23 09:08:24 51°21.732 2°58.145 -999 3.857097 32.742685 -2.871232
2006-11-23 09:09:24 51°21.726 2°58.147 -999 3.855854 32.742285 -2.871232
2006-11-23 09:10:24 51°21.722 2°58.147 -999 3.855957 32.740018 -2.871232
2006-11-23 09:11:24 51°21.719 2°58.146 -999 3.857615 32.741094 -2.871232
2006-11-23 09:12:24 51°21.716 2°58.145 -999 3.859999 32.747405 -2.871232
2006-11-23 09:13:24 51°21.715 2°58.142 -999 3.861346 32.758518 -2.871232
2006-11-23 09:14:24 51°21.713 2°58.14 -999 3.861035 32.75639 -2.871232
2006-11-23 09:15:24 51°21.711 2°58.138 -999 3.861968 32.758717 -2.871232
2006-11-23 09:16:24 51°21.709 2°58.135 -999 3.861968 32.757905 -2.871232
2006-11-23 09:17:24 51°21.707 2°58.133 -999 3.860621 32.753283 -2.871232
2006-11-23 09:18:24 51°21.705 2°58.132 -999 3.859584 32.750787 -2.871232
2006-11-23 09:19:24 51°21.703 2°58.129 -999 3.857719 32.743697 -2.871232
2006-11-23 09:20:24 51°21.702 2°58.126 -999 3.857304 32.743022 -2.871232
2006-11-23 09:21:24 51°21.7 2°58.122 -999 3.857201 32.742042 -2.871232
2006-11-23 09:22:24 51°21.699 2°58.119 -999 3.858755 32.744571 -2.871232
2006-11-23 09:23:24 51°21.698 2°58.116 -999 3.858652 32.745214 -2.871232
2006-11-23 09:24:24 51°21.696 2°58.114 -999 3.860621 32.746795 -2.871232
2006-11-23 09:25:24 51°21.694 2°58.113 -999 3.860932 32.744868 -2.871232
2006-11-23 09:26:23 51°21.692 2°58.112 -999 3.857512 32.732814 -2.871232
2006-11-23 09:27:24 51°21.686 2°58.12 -999 3.852019 32.714122 -2.871232
2006-11-23 09:28:23 51°21.674 2°58.17 -999 3.846422 32.694424 -2.871232
2006-11-23 09:29:24 51°21.68 2°58.198 -999 3.844661 32.687481 -2.871232
2006-11-23 09:30:23 51°21.679 2°58.202 -999 3.845386 32.688669 -2.871232
2006-11-23 09:31:24 51°21.675 2°58.205 -999 3.849013 32.70272 -2.871232
2006-11-23 09:32:23 51°21.672 2°58.207 -999 3.851811 32.713784 -2.871232
2006-11-23 09:33:24 51°21.669 2°58.207 -999 3.853262 32.715341 -2.871232
2006-11-23 09:34:24 51°21.664 2°58.206 -999 3.853366 32.710645 -2.871232
2006-11-23 09:35:24 51°21.658 2°58.206 -999 3.85005 32.699547 -2.871232
2006-11-23 09:36:24 51°21.653 2°58.206 -999 3.845904 32.68546 -2.871232
2006-11-23 09:37:24 51°21.647 2°58.207 -999 3.843313 32.674721 -2.871232
2006-11-23 09:38:24 51°21.642 2°58.208 -999 3.842691 32.672078 -2.871232
2006-11-23 09:39:24 51°21.637 2°58.211 -999 3.840826 32.666581 -2.871232
2006-11-23 09:40:23 51°21.633 2°58.215 -999 3.840308 32.66086 -2.871232
2006-11-23 09:41:24 51°21.629 2°58.22 -999 3.840204 32.66069 -2.871232
2006-11-23 09:42:23 51°21.623 2°58.229 -999 3.840515 32.662012 -2.871232
2006-11-23 09:43:24 51°21.581 2°58.249 -999 3.841759 32.666489 -2.871232
2006-11-23 09:44:24 51°21.52 2°58.181 -999 3.850775 32.703167 -2.871232
2006-11-23 09:45:24 51°21.556 2°58.083 -999 3.857719 32.734773 -2.871232
2006-11-23 09:46:24 51°21.649 2°58.094 -999 3.847044 32.692196 -2.871232
2006-11-23 09:47:24 51°21.697 2°58.154 -999 3.840722 32.666411 -2.871232
2006-11-23 09:48:24 51°21.697 2°58.161 -999 3.841344 32.647155 -2.871232
2006-11-23 09:49:24 51°21.694 2°58.164 -999 3.831291 32.548774 -2.871232
2006-11-23 09:50:24 51°21.691 2°58.168 -999 3.816574 32.411184 -2.871232
2006-11-23 09:51:24 51°21.69 2°58.174 -999 3.840204 32.663125 -2.871232
2006-11-23 09:52:23 51°21.686 2°58.182 -999 3.839582 32.658045 -2.871232
2006-11-23 09:53:24 51°21.684 2°58.19 -999 3.839375 32.648779 -2.871232
2006-11-23 09:54:24 51°21.68 2°58.197 -999 3.843935 32.675741 -2.871232
2006-11-23 09:55:24 51°21.675 2°58.206 -999 3.843209 32.665627 -2.871232
2006-11-23 09:56:23 51°21.669 2°58.215 -999 3.840308 32.643017 -2.871232
2006-11-23 09:57:24 51°21.665 2°58.224 -999 3.840826 32.655222 -2.871232
2006-11-23 09:58:24 51°21.661 2°58.233 -999 3.838338 32.632477 -2.871232
2006-11-23 09:59:24 51°21.659 2°58.242 -999 3.838338 32.634909 -2.871232
2006-11-23 10:00:24 51°21.656 2°58.254 -999 3.839479 32.646517 -2.871232
2006-11-23 10:01:24 51°21.655 2°58.263 -999 3.827457 32.569902 -2.871232
2006-11-23 10:02:24 51°21.653 2°58.273 -999 3.818751 32.510861 -2.871232
2006-11-23 10:03:24 51°21.652 2°58.284 -999 3.820928 32.537974 -2.871232
2006-11-23 10:04:24 51°21.627 2°58.309 -999 3.817819 32.511729 -2.871232
2006-11-23 10:05:23 51°21.558 2°58.304 -999 3.805694 32.423411 -2.871232
2006-11-23 10:06:24 51°21.504 2°58.218 -999 3.799062 32.38148 -2.871232
2006-11-23 10:07:24 51°21.494 2°58.073 -999 3.833883 32.70157 -2.871232
2006-11-23 10:08:24 51°21.488 2°57.877 -999 3.803499 -999 -2.871232
2006-11-23 10:09:24 51°21.503 2°57.681 -999 3.833363 32.561921 -2.837523
2006-11-23 10:10:24 51°21.522 2°57.489 -999 3.793464 32.231156 -2.871232
2006-11-23 10:11:24 51°21.528 2°57.37 -999 3.815331 32.425182 -2.871232
2006-11-23 10:12:23 51°21.528 2°57.342 -999 3.831291 32.572223 -2.871232
2006-11-23 10:13:23 51°21.53 2°57.322 -999 3.842173 32.672851 -2.871232
2006-11-23 10:14:23 51°21.533 2°57.326 -999 3.844557 32.689747 -2.871232
2006-11-23 10:15:24 51°21.532 2°57.342 -999 3.844142 32.68582 -2.871232
2006-11-23 10:16:24 51°21.526 2°57.362 -999 3.841655 32.663074 -2.871232
2006-11-23 10:17:23 51°21.519 2°57.375 -999 3.844142 32.686632 -2.871232
2006-11-23 10:18:24 51°21.513 2°57.385 -999 3.844039 32.687274 -2.871232
2006-11-23 10:19:23 51°21.511 2°57.399 -999 3.842899 32.674853 -2.871232
2006-11-23 10:20:24 51°21.509 2°57.41 -999 3.842795 32.674683 -2.871232
2006-11-23 10:21:24 51°21.508 2°57.42 -999 3.841862 32.66666 -2.871232
2006-11-23 10:22:24 51°21.506 2°57.435 -999 3.841448 32.657866 -2.871232
2006-11-23 10:23:24 51°21.51 2°57.442 -999 3.843521 32.678307 -2.871232
2006-11-23 10:24:24 51°21.522 2°57.377 -999 3.843728 32.677024 -2.871232
2006-11-23 10:25:24 51°21.484 2°57.328 -999 3.847044 32.697877 -2.871232
2006-11-23 10:26:25 51°21.487 2°57.335 -999 3.8458 32.682045 -2.871232
2006-11-23 10:27:24 51°21.492 2°57.343 -999 3.848081 32.702007 -2.871232
2006-11-23 10:28:24 51°21.495 2°57.353 -999 3.847459 32.696932 -2.871232
2006-11-23 10:29:24 51°21.495 2°57.369 -999 3.844868 32.667539 -2.871232
2006-11-23 10:30:24 51°21.493 2°57.387 -999 3.844246 32.661654 -2.871232
2006-11-23 10:31:25 51°21.49 2°57.406 -999 3.846526 32.678368 -2.871232
2006-11-23 10:32:23 51°21.488 2°57.426 -999 3.846422 32.676576 -2.871232
2006-11-23 10:33:24 51°21.486 2°57.447 -999 3.847148 32.685875 -2.871232
2006-11-23 10:34:24 51°21.475 2°57.476 -999 3.845904 32.677348 -2.871232
2006-11-23 10:35:24 51°21.473 2°57.495 -999 3.846526 32.684045 -2.871232
2006-11-23 10:36:24 51°21.477 2°57.515 -999 3.847666 32.691591 -2.871232
2006-11-23 10:37:24 51°21.44 2°57.559 -999 3.847977 32.6921 -2.871232
2006-11-23 10:38:25 51°21.373 2°57.491 -999 3.845063 31.853649 -2.871232
2006-11-23 10:39:24 51°21.435 2°57.416 -999 3.845282 32.681196 -2.871232
2006-11-23 10:40:23 51°21.497 2°57.418 -999 3.845179 32.671293 -2.871232
2006-11-23 10:41:24 51°21.498 2°57.44 -999 3.845904 32.678159 -2.871232
2006-11-23 10:42:24 51°21.513 2°57.445 -999 3.844038 32.663745 -2.871232
2006-11-23 10:43:24 51°21.518 2°57.352 -999 3.846008 32.678329 -2.871232
2006-11-23 10:44:24 51°21.465 2°57.341 -999 3.846837 32.674824 -2.871232
2006-11-23 10:45:24 51°21.465 2°57.364 -999 3.848184 32.681897 -2.871232
2006-11-23 10:46:23 51°21.468 2°57.387 -999 3.845593 32.660626 -2.871232
2006-11-23 10:47:24 51°21.469 2°57.413 -999 3.847666 32.679426 -2.871232
2006-11-23 10:48:24 51°21.47 2°57.438 -999 3.848806 32.690213 -2.871232
2006-11-23 10:49:25 51°21.472 2°57.464 -999 3.847355 32.676485 -2.871232
2006-11-23 10:50:24 51°21.474 2°57.492 -999 3.847666 32.672132 -2.871232
2006-11-23 10:51:24 51°21.476 2°57.522 -999 3.847044 32.66301 -2.871232
2006-11-23 10:52:24 51°21.477 2°57.551 -999 3.853055 32.723928 -2.871232
2006-11-23 10:53:24 51°21.478 2°57.58 -999 3.852952 32.723759 -2.871232
2006-11-23 10:54:24 51°21.478 2°57.612 -999 3.852744 32.720986 -2.871232
2006-11-23 10:55:24 51°21.455 2°57.649 -999 3.854195 32.725787 -2.871232
2006-11-23 10:56:24 51°21.408 2°57.645 -999 3.855439 32.730248 -2.871232
2006-11-23 10:57:25 51°21.399 2°57.592 -999 3.853159 32.720851 -2.871232
2006-11-23 10:58:24 51°21.447 2°57.548 -999 3.852226 32.716895 -2.871232
2006-11-23 10:59:24 51°21.471 2°57.478 -999 3.853988 32.729506 -2.871232
2006-11-23 11:00:24 51°21.446 2°57.439 -999 3.852433 32.72129 -2.871232
2006-11-23 11:01:23 51°21.433 2°57.462 -999 3.853884 32.726091 -2.871232
2006-11-23 11:02:24 51°21.438 2°57.489 -999 3.853884 32.726903 -2.871232
2006-11-23 11:03:25 51°21.444 2°57.519 -999 3.853573 32.724773 -2.871232
2006-11-23 11:04:24 51°21.448 2°57.552 -999 3.853055 32.71987 -2.871232
2006-11-23 11:05:24 51°21.421 2°57.598 -999 3.853159 32.720039 -2.871232
2006-11-23 11:06:24 51°21.371 2°57.567 -999 3.855439 32.730248 -2.871232
2006-11-23 11:07:24 51°21.418 2°57.511 -999 3.855024 32.731195 -2.871232
2006-11-23 11:08:23 51°21.488 2°57.461 -999 3.852537 32.706857 -2.871232
2006-11-23 11:09:23 51°21.476 2°57.401 -999 3.850982 32.704317 -2.871232
2006-11-23 11:10:25 51°21.475 2°57.427 -999 3.85347 32.722169 -2.871232
2006-11-23 11:11:24 51°21.467 2°57.457 -999 3.853988 32.72626 -2.871232
2006-11-23 11:12:24 51°21.462 2°57.491 -999 3.853262 32.72102 -2.871232
2006-11-23 11:13:24 51°21.454 2°57.53 -999 3.853366 32.719566 -2.871232
2006-11-23 11:14:24 51°21.444 2°57.571 -999 3.853573 32.719093 -2.871232
2006-11-23 11:15:25 51°21.436 2°57.613 -999 3.853781 32.720243 -2.871232
2006-11-23 11:16:23 51°21.42 2°57.694 -999 3.855957 32.72947 -2.871232
2006-11-23 11:17:24 51°21.454 2°57.788 -999 3.85689 32.731801 -2.871232
2006-11-23 11:18:24 51°21.508 2°57.794 -999 3.852951 32.714834 -2.871232
2006-11-23 11:19:24 51°21.534 2°57.756 -999 3.852537 32.711723 -2.871232
2006-11-23 11:20:24 51°21.532 2°57.726 -999 3.852641 32.712704 -2.871232
2006-11-23 11:21:24 51°21.51 2°57.624 -999 3.852848 32.71142 -2.871232
2006-11-23 11:22:23 51°21.487 2°57.478 -999 3.847769 32.665012 -2.871232
2006-11-23 11:23:24 51°21.466 2°57.446 -999 3.845696 32.611453 -2.871232
2006-11-23 11:24:25 51°21.467 2°57.485 -999 3.838441 32.526826 -2.871232
2006-11-23 11:25:24 51°21.432 2°57.499 -999 3.846214 32.600201 -2.871232
2006-11-23 11:26:24 51°21.422 2°57.498 -999 3.858859 32.728524 -2.871232
2006-11-23 11:27:24 51°21.434 2°57.516 -999 3.853884 32.687997 -2.871232
2006-11-23 11:28:24 51°21.445 2°57.518 -999 3.858444 32.722986 -2.871232
2006-11-23 11:29:24 51°21.46 2°57.535 -999 3.854816 32.674962 -2.871232
2006-11-23 11:30:25 51°21.471 2°57.549 -999 3.865388 32.753734 -2.871232
2006-11-23 11:31:24 51°21.487 2°57.574 -999 3.85948 32.702011 -2.871232
2006-11-23 11:32:25 51°21.484 2°57.529 -999 3.855542 32.669685 -2.871232
2006-11-23 11:33:24 51°21.47 2°57.447 -999 3.861449 32.72222 -2.871232
2006-11-23 11:34:24 51°21.483 2°57.434 -999 3.859377 32.706696 -2.871232
2006-11-23 11:35:25 51°21.497 2°57.434 -999 3.855853 32.679896 -2.871232
2006-11-23 11:36:24 51°21.511 2°57.449 -999 3.863315 32.743883 -2.871232
2006-11-23 11:37:23 51°21.521 2°57.453 -999 3.860102 32.720022 -2.871232
2006-11-23 11:38:24 51°21.524 2°57.467 -999 3.852744 32.688559 -2.871232
2006-11-23 11:39:24 51°21.519 2°57.495 -999 3.85264 32.691629 -2.871232
2006-11-23 11:40:24 51°21.501 2°57.523 -999 3.852122 32.69078 -2.871232
2006-11-23 11:41:23 51°21.463 2°57.469 -999 3.856579 32.71508 -2.871232
2006-11-23 11:42:25 51°21.475 2°57.473 -999 3.858237 32.718597 -2.871232
2006-11-23 11:43:24 51°21.491 2°57.48 -999 3.858962 32.733556 -2.871232
2006-11-23 11:44:23 51°21.505 2°57.493 -999 3.853677 32.693325 -2.871232
2006-11-23 11:45:24 51°21.506 2°57.506 -999 3.847251 32.632604 -2.871232
2006-11-23 11:46:24 51°21.488 2°57.543 -999 3.848598 32.658278 -2.871232
2006-11-23 11:47:24 51°21.444 2°57.557 -999 3.848909 32.654743 -2.871232
2006-11-23 11:48:24 51°21.406 2°57.539 -999 3.855646 32.705455 -2.871232
2006-11-23 11:49:24 51°21.346 2°57.429 -999 3.853469 32.687318 -2.871232
2006-11-23 11:50:24 51°21.267 2°57.296 -999 3.787245 32.065584 -2.871232
2006-11-23 11:51:24 51°21.194 2°57.161 -999 3.843105 32.59586 -2.871232
2006-11-23 11:52:24 51°21.119 2°57.019 -999 3.844763 32.570379 -2.871232
2006-11-23 11:53:24 51°21.046 2°56.883 -999 3.848908 32.620799 -2.871232
2006-11-23 11:54:23 51°20.975 2°56.745 -999 3.863419 32.731906 -2.871232
2006-11-23 11:55:24 51°20.902 2°56.604 -999 3.865802 32.717999 -2.871232
2006-11-23 11:56:24 51°20.829 2°56.457 -999 3.865387 32.708435 -2.871232
2006-11-23 11:57:24 51°20.756 2°56.326 -999 3.864869 32.693053 -2.871232
2006-11-23 11:58:24 51°20.686 2°56.193 -999 3.868393 32.713345 -2.871232
2006-11-23 11:59:24 51°20.609 2°56.048 -999 3.853986 32.573631 -2.871232
2006-11-23 12:00:24 51°20.529 2°55.899 -999 3.866631 32.68384 -2.871232
2006-11-23 12:01:24 51°20.449 2°55.75 -999 3.876373 32.762679 -2.871232
2006-11-23 12:02:24 51°20.382 2°55.635 -999 3.857613 32.581259 -2.871232
2006-11-23 12:03:23 51°20.311 2°55.504 -999 3.868289 32.6785 -2.871232
2006-11-23 12:04:24 51°20.223 2°55.326 -999 3.866527 32.655478 -2.871232
2006-11-23 12:05:24 51°20.134 2°55.157 -999 3.88394 32.811293 -2.871232
2006-11-23 12:06:23 51°20.04 2°54.996 -999 3.883421 32.800757 -2.871232
2006-11-23 12:07:24 51°19.939 2°54.829 -999 3.893579 32.887469 -2.871232
2006-11-23 12:08:23 51°19.843 2°54.663 -999 3.884354 32.792572 -2.871232
2006-11-23 12:09:24 51°19.75 2°54.499 -999 3.891091 32.847064 -2.871232
2006-11-23 12:10:24 51°19.672 2°54.375 -999 3.888914 32.81528 -2.871232
2006-11-23 12:11:24 51°19.59 2°54.247 -999 3.897518 32.885672 -2.871232
2006-11-23 12:12:24 51°19.5 2°54.126 -999 3.897206 32.863347 -2.871232
2006-11-23 12:13:24 51°19.409 2°54.007 -999 3.900627 32.873675 -2.871232
2006-11-23 12:14:23 51°19.328 2°53.893 -999 3.894407 32.791907 -2.871232
2006-11-23 12:15:24 51°19.252 2°53.772 -999 3.901663 32.839043 -2.871232
2006-11-23 12:16:24 51°19.174 2°53.651 -999 3.889535 32.710872 -2.871232
2006-11-23 12:17:23 51°19.115 2°53.555 -999 3.895236 32.752258 -2.871232
2006-11-23 12:18:23 51°19.067 2°53.496 -999 3.887876 32.677705 -2.871232
2006-11-23 12:19:24 51°19.019 2°53.427 -999 3.901455 32.804107 -2.871232
2006-11-23 12:20:23 51°18.972 2°53.361 -999 3.901351 32.80394 -2.871232
2006-11-23 12:21:24 51°18.927 2°53.302 -999 3.898242 32.775605 -2.871232
2006-11-23 12:22:24 51°18.888 2°53.257 -999 3.894614 32.742418 -2.871232
2006-11-23 12:23:24 51°18.844 2°53.19 -999 3.893577 32.733509 -2.871232
2006-11-23 12:24:24 51°18.798 2°53.131 -999 3.889327 32.692899 -2.871232
2006-11-23 12:25:24 51°18.756 2°53.069 -999 3.895858 32.753269 -2.871232
2006-11-23 12:26:24 51°18.689 2°52.982 -999 3.895754 32.752298 -2.871232
2006-11-23 12:27:24 51°18.6 2°52.893 -999 3.887254 32.675084 -2.871232
2006-11-23 12:28:24 51°18.487 2°52.79 -999 3.884352 32.651103 -2.871232
2006-11-23 12:29:24 51°18.364 2°52.701 -999 3.887973 -999 -2.871232
2006-11-23 12:30:23 51°18.225 2°52.639 -999 3.894614 32.759276 -2.871232
2006-11-23 12:31:24 51°18.083 2°52.606 -999 3.884041 32.659397 -2.871232
2006-11-23 12:32:24 51°17.944 2°52.569 -999 3.880724 32.627523 -2.871232
2006-11-23 12:33:23 51°17.808 2°52.534 -999 3.884352 32.651103 -2.871232
2006-11-23 12:34:23 51°17.663 2°52.51 -999 3.887358 32.676855 -2.871232
2006-11-23 12:35:24 51°17.518 2°52.495 -999 3.893784 32.721019 -2.871232
2006-11-23 12:36:24 51°17.367 2°52.495 -999 3.8829 32.590391 -2.871232
2006-11-23 12:37:24 51°17.208 2°52.541 -999 3.891607 32.651055 -2.871232
2006-11-23 12:38:24 51°17.048 2°52.599 -999 3.889015 32.610084 -2.871232
2006-11-23 12:39:23 51°16.893 2°52.667 -999 3.89057 32.619828 -2.871232
2006-11-23 12:40:23 51°16.734 2°52.736 -999 3.895546 32.700676 -2.871232
2006-11-23 12:41:24 51°16.573 2°52.821 -999 3.891711 32.71042 -2.871232
2006-11-23 12:42:23 51°16.418 2°52.917 -999 3.893163 32.750493 -2.871232
2006-11-23 12:43:24 51°16.259 2°53.014 -999 3.892852 32.766863 -2.871232
2006-11-23 12:44:24 51°16.101 2°53.107 -999 3.890156 32.644673 -2.871232
2006-11-23 12:45:23 51°15.945 2°53.2 -999 3.890466 32.602129 -2.871232
2006-11-23 12:46:23 51°15.787 2°53.298 -999 3.887461 32.631448 -2.871232
2006-11-23 12:47:23 51°15.631 2°53.413 -999 3.879378 32.699885 -2.871232
2006-11-23 12:48:23 51°15.476 2°53.527 -999 3.866838 32.667259 -2.871232
2006-11-23 12:49:23 51°15.324 2°53.64 -999 3.842897 32.52542 -2.871232
2006-11-23 12:50:23 51°15.173 2°53.765 -999 3.844037 32.531343 -2.871232
2006-11-23 12:51:24 51°15.038 2°53.987 -999 3.836574 32.474659 -2.871232
2006-11-23 12:52:24 51°14.9 2°54.239 -999 3.824952 -999 -2.871232
2006-11-23 12:53:24 51°14.752 2°54.479 -999 3.807764 32.287829 -2.871232
2006-11-23 12:54:23 51°14.595 2°54.688 -999 3.807764 32.292632 -2.871232
2006-11-23 12:55:23 51°14.439 2°54.914 -999 3.792306 -999 -2.871232
2006-11-23 12:56:24 51°14.307 2°55.178 -999 3.773466 32.215817 -2.871232
2006-11-23 12:57:23 51°14.201 2°55.354 -999 3.490243 29.648707 -2.871232
2006-11-23 12:58:24 51°14.111 2°55.425 -999 3.106513 26.177024 -2.871232
2006-11-23 12:59:23 51°14.037 2°55.478 -999 3.221587 27.258195 -2.871232
2006-11-23 13:00:23 51°13.962 2°55.532 -999 3.129381 26.435137 -2.871232
2006-11-23 13:01:24 51°13.868 2°55.6 -999 3.137763 26.515368 -2.871232
2006-11-23 13:02:24 51°13.781 2°55.69 -999 3.007606 25.317216 -2.871232
2006-11-23 13:03:24 51°13.724 2°55.804 -999 2.561236 21.304248 -2.871232
2006-11-23 13:04:24 51°13.653 2°55.952 -999 2.940577 24.744373 -2.871232
2006-11-23 13:05:23 51°13.619 2°56.016 -999 2.984331 25.137303 -2.871232
2006-11-23 13:06:25 51°13.605 2°56.067 -999 2.958988 24.915223 -2.871232
2006-11-23 13:07:24 51°13.598 2°56.088 -999 3.09896 26.189719 -2.871232
2006-11-23 13:08:25 51°13.6 2°56.088 -999 3.195404 27.039196 -2.871232
2006-11-23 13:09:24 51°13.6 2°56.087 -999 3.058712 25.794282 -2.871232
2006-11-23 13:10:24 51°13.596 2°56.09 -999 3.142419 26.564868 -2.871232
2006-11-23 13:11:23 51°13.599 2°56.089 -999 3.287728 27.901815 -2.871232
2006-11-23 13:12:25 51°13.598 2°56.093 -999 3.379864 28.737064 -2.871232